sat.trackr.live / text

‹ back to catalog

STARLINK-5459

NORAD 55669 · 2023-021AT

PAYLOAD ACTIVE UNKNOWN

§ Identity

Operator
Country
US
Launch date
2023-02-17
Launch site
AFWTR
Launch vehicle
Mass (kg)
RCS (m²)

Purposes: comms

External: N2YO · Heavens-Above · Gunter

§ Orbital elements

Epoch: 2026-05-24T22:12:18.899136Z

Period
96.11 min
Inclination
69.9997°
Eccentricity
0.0002647
Mean motion
14.98330053 rev/d
Perigee alt
570.2 km
Apogee alt
573.9 km
Semi-major
6,950.2 km
B*
1.7939e-5
RAAN
332.2477°
Arg perigee
268.5863°
Mean anomaly
91.4993°
Rev number
18,069

§ Raw data

STARLINK-54591 55669U 23021AT  26144.92521874  .00000121  00000+0  17939-4 0  99902 55669  69.9997 332.2477 0002647 268.5863  91.4993 14.98330053180692

JSON: /api/v1/satellites/55669 · /tle

For live sub-satellite position, see the globe view (requires WebGL).

§ Visibility from observer

Set your observer location to see the next 7 days of passes ≥ 10°. The values pass through the URL so the page stays shareable.

No JS? Fill the form by hand. The geolocation button needs JavaScript.